TRA5043 EHAM-LGKO

Flight info

Callsign TRA5043
Flight time N/A
Altitude 35000
Route EDUPO Z739 MISGO DCT DOJOH DCT DODEN DCT NEGIX DCT DINKU DCT BESNI DCT GOMIG DCT BEDOX DCT LURID DCT DOBOT DCT YULHU DCT VABEK UL603 OLOTA DCT DISOR DCT MES UN139 LURUS L995 KOPAR
Aircraft B738/M-SDE2E3FGHIRWXY/LB1

Departure

Time N/A
Airport Amsterdam Airport Schiphol (EHAM)

Arrival

Time 2026-05-07 14:32
Airport Kos International Airport "Ippokratis" (LGKO)
Time Latitude Longitude Altitude Speed Heading
2026-05-07 14:01 39.01527 25.13740 37137 ft 482 kts 144°
2026-05-07 14:01 38.96241 25.19131 37127 ft 483 kts 144°
2026-05-07 14:02 38.91010 25.24457 37119 ft 483 kts 144°
2026-05-07 14:02 38.85738 25.29815 37118 ft 483 kts 144°
2026-05-07 14:03 38.80459 25.35168 37127 ft 484 kts 144°
2026-05-07 14:03 38.75178 25.40513 37122 ft 484 kts 144°
2026-05-07 14:04 38.69895 25.45850 37122 ft 484 kts 144°
2026-05-07 14:04 38.64610 25.51179 37130 ft 483 kts 144°
2026-05-07 14:05 38.59326 25.56496 37064 ft 484 kts 144°
2026-05-07 14:05 38.56664 25.59170 36750 ft 487 kts 144°
2026-05-07 14:05 38.54007 25.61838 36401 ft 485 kts 144°
2026-05-07 14:05 38.51357 25.64496 35784 ft 484 kts 144°
2026-05-07 14:06 38.48707 25.67152 35129 ft 485 kts 144°
2026-05-07 14:06 38.46053 25.69808 34489 ft 485 kts 143°
2026-05-07 14:06 38.43405 25.72457 33886 ft 483 kts 143°
2026-05-07 14:06 38.40772 25.75089 33400 ft 478 kts 143°
2026-05-07 14:07 38.38201 25.77657 32950 ft 473 kts 144°
2026-05-07 14:07 38.35628 25.80223 32491 ft 468 kts 144°
2026-05-07 14:07 38.33073 25.82770 32051 ft 464 kts 144°
2026-05-07 14:07 38.30538 25.85293 31602 ft 460 kts 144°
2026-05-07 14:08 38.28029 25.87789 31166 ft 456 kts 144°
2026-05-07 14:08 38.25449 25.90109 30735 ft 451 kts 152°
2026-05-07 14:08 38.22674 25.91891 30318 ft 443 kts 162°
2026-05-07 14:08 38.19792 25.93215 29867 ft 438 kts 164°
2026-05-07 14:09 38.16926 25.94474 29390 ft 434 kts 165°
2026-05-07 14:09 38.14088 25.95716 28962 ft 430 kts 164°
2026-05-07 14:09 38.11276 25.96959 28523 ft 426 kts 164°
2026-05-07 14:09 38.08495 25.98201 28079 ft 422 kts 164°
2026-05-07 14:10 38.05743 25.99439 27654 ft 419 kts 164°
2026-05-07 14:10 38.03006 26.00677 27215 ft 415 kts 163°
2026-05-07 14:10 38.00292 26.01905 26788 ft 412 kts 163°
2026-05-07 14:10 37.97602 26.03122 26372 ft 409 kts 163°
2026-05-07 14:11 37.94928 26.04332 25962 ft 407 kts 163°
2026-05-07 14:11 37.92272 26.05532 25556 ft 404 kts 163°
2026-05-07 14:11 37.89633 26.06723 25145 ft 402 kts 163°
2026-05-07 14:11 37.87010 26.07905 24739 ft 399 kts 163°
2026-05-07 14:12 37.84397 26.09083 24336 ft 397 kts 163°
2026-05-07 14:12 37.83521 26.09477 24203 ft 397 kts 164°
2026-05-07 14:12 37.79216 26.11415 23494 ft 394 kts 163°
2026-05-07 14:12 37.76641 26.12572 23028 ft 392 kts 163°
2026-05-07 14:13 37.74084 26.13722 22610 ft 389 kts 163°
2026-05-07 14:13 37.71555 26.14862 22247 ft 384 kts 163°
2026-05-07 14:13 37.69044 26.15996 21839 ft 382 kts 163°
2026-05-07 14:13 37.66549 26.17122 21436 ft 380 kts 163°
2026-05-07 14:14 37.64069 26.18241 21036 ft 377 kts 163°
2026-05-07 14:14 37.61601 26.19353 20643 ft 375 kts 163°
2026-05-07 14:14 37.59149 26.20456 20249 ft 374 kts 163°
2026-05-07 14:14 37.56709 26.21554 19846 ft 372 kts 163°
2026-05-07 14:15 37.54275 26.22648 19465 ft 370 kts 163°
2026-05-07 14:15 37.51855 26.23735 19081 ft 369 kts 163°
2026-05-07 14:15 37.49442 26.24818 18693 ft 368 kts 163°
2026-05-07 14:15 37.47063 26.25885 18273 ft 367 kts 163°
2026-05-07 14:16 37.44629 26.26976 17841 ft 366 kts 163°
2026-05-07 14:16 37.42238 26.28047 17433 ft 364 kts 163°
2026-05-07 14:16 37.39855 26.29114 17038 ft 362 kts 163°
2026-05-07 14:16 37.37490 26.30173 16651 ft 360 kts 163°
2026-05-07 14:17 37.35168 26.31211 16266 ft 358 kts 162°
2026-05-07 14:17 37.32797 26.32270 15893 ft 356 kts 162°
2026-05-07 14:17 37.30497 26.33298 15522 ft 355 kts 162°
2026-05-07 14:17 37.28177 26.34333 15146 ft 353 kts 162°
2026-05-07 14:18 37.25867 26.35363 14775 ft 352 kts 162°
2026-05-07 14:18 37.23567 26.36389 14394 ft 351 kts 162°
2026-05-07 14:18 37.21267 26.37412 14028 ft 350 kts 161°
2026-05-07 14:18 37.18979 26.38429 13624 ft 348 kts 161°
2026-05-07 14:19 37.16698 26.39439 13231 ft 347 kts 161°
2026-05-07 14:19 37.14430 26.40442 12853 ft 345 kts 161°
2026-05-07 14:19 37.12177 26.41438 12468 ft 343 kts 161°
2026-05-07 14:19 37.09934 26.42429 12090 ft 341 kts 161°
2026-05-07 14:20 37.07702 26.43415 11712 ft 339 kts 161°
2026-05-07 14:20 37.05485 26.44394 11340 ft 337 kts 161°
2026-05-07 14:20 37.03275 26.45369 10968 ft 336 kts 161°
2026-05-07 14:20 37.01076 26.46339 10594 ft 334 kts 161°
2026-05-07 14:21 36.98913 26.47294 10432 ft 326 kts 161°
2026-05-07 14:21 36.96792 26.48228 10273 ft 318 kts 161°
2026-05-07 14:21 36.94734 26.49134 10120 ft 310 kts 161°
2026-05-07 14:21 36.92705 26.50026 9790 ft 308 kts 161°
2026-05-07 14:22 36.90691 26.50926 9463 ft 306 kts 157°
2026-05-07 14:22 36.88956 26.52419 9130 ft 304 kts 131°
2026-05-07 14:22 36.87837 26.54617 8835 ft 300 kts 113°
2026-05-07 14:22 36.87029 26.57005 8532 ft 297 kts 111°
2026-05-07 14:23 36.86243 26.59381 8220 ft 296 kts 112°
2026-05-07 14:23 36.85448 26.61744 7913 ft 294 kts 112°
2026-05-07 14:23 36.84651 26.64083 7612 ft 292 kts 112°
2026-05-07 14:23 36.84122 26.65629 7416 ft 291 kts 112°
2026-05-07 14:24 36.83598 26.67910 7103 ft 288 kts 92°
2026-05-07 14:24 36.83906 26.70346 6830 ft 284 kts 68°
2026-05-07 14:24 36.84879 26.72440 6681 ft 275 kts 55°
2026-05-07 14:24 36.85952 26.74377 6531 ft 268 kts 54°
2026-05-07 14:25 36.87002 26.76260 6399 ft 260 kts 54°
2026-05-07 14:25 36.88015 26.78092 6278 ft 253 kts 55°
2026-05-07 14:25 36.88996 26.79878 6164 ft 245 kts 55°
2026-05-07 14:25 36.89939 26.81603 6046 ft 238 kts 55°
2026-05-07 14:26 36.90873 26.83315 5799 ft 237 kts 55°
2026-05-07 14:26 36.91793 26.85011 5551 ft 235 kts 56°
2026-05-07 14:26 36.92707 26.86736 5184 ft 240 kts 56°
2026-05-07 14:26 36.93618 26.88462 4911 ft 236 kts 56°
2026-05-07 14:27 36.94467 26.90071 4643 ft 231 kts 56°
2026-05-07 14:27 36.95343 26.91731 4409 ft 226 kts 55°
2026-05-07 14:27 36.96078 26.93438 4133 ft 223 kts 77°
2026-05-07 14:27 36.95984 26.95314 3916 ft 216 kts 111°
2026-05-07 14:28 36.95156 26.96815 3700 ft 208 kts 138°
2026-05-07 14:28 36.93998 26.97848 3492 ft 202 kts 148°
2026-05-07 14:28 36.92832 26.98749 3261 ft 199 kts 148°
2026-05-07 14:28 36.91651 26.99654 3024 ft 194 kts 149°
2026-05-07 14:29 36.90525 27.00514 2771 ft 191 kts 149°
2026-05-07 14:29 36.89403 27.01380 2515 ft 188 kts 149°
2026-05-07 14:29 36.88301 27.02232 2263 ft 185 kts 149°
2026-05-07 14:29 36.87219 27.03072 2000 ft 181 kts 150°
2026-05-07 14:30 36.86161 27.03896 1759 ft 178 kts 150°
2026-05-07 14:30 36.85141 27.04692 1524 ft 168 kts 150°
2026-05-07 14:30 36.84184 27.05439 1357 ft 162 kts 150°
2026-05-07 14:30 36.83230 27.06177 1166 ft 160 kts 149°
2026-05-07 14:31 36.82288 27.06928 995 ft 163 kts 149°
2026-05-07 14:31 36.81308 27.07685 722 ft 166 kts 150°
2026-05-07 14:31 36.80338 27.08437 434 ft 163 kts 150°
2026-05-07 14:31 36.79492 27.09091 425 ft 114 kts 148°
2026-05-07 14:32 36.79007 27.09469 426 ft 50 kts 148°
2026-05-07 14:32 36.78873 27.09565 424 ft 10 kts 167°
2026-05-07 14:32 36.78855 27.09578 423 ft 3 kts 118°
2026-05-07 14:32 36.78867 27.09592 422 ft 3 kts 357°
2026-05-07 14:33 36.78891 27.09573 423 ft 6 kts 323°
2026-05-07 14:33 36.78943 27.09524 427 ft 14 kts 322°
2026-05-07 14:33 36.78980 27.09490 418 ft 17 kts 328°
2026-05-07 14:33 36.79073 27.09418 419 ft 23 kts 328°
2026-05-07 14:34 36.79222 27.09301 425 ft 28 kts 328°
2026-05-07 14:34 36.79400 27.09163 424 ft 32 kts 329°
2026-05-07 14:34 36.79579 27.09022 424 ft 17 kts 329°
2026-05-07 14:34 36.79695 27.08993 427 ft 17 kts 358°
2026-05-07 14:35 36.79809 27.08988 421 ft 16 kts 359°
2026-05-07 14:35 36.79917 27.08983 424 ft 15 kts 352°
2026-05-07 14:35 36.79995 27.08940 420 ft 8 kts 329°
2026-05-07 14:35 36.80036 27.08915 425 ft 6 kts 358°
2026-05-07 14:36 36.80050 27.08936 427 ft 3 kts 76°
2026-05-07 14:36 36.80052 27.08963 427 ft 4 kts 88°
2026-05-07 14:36 36.80052 27.08976 416 ft 1 kts 88°
2026-05-07 14:36 36.80052 27.08978 417 ft 0 kts 88°
2026-05-07 14:37 36.80052 27.08986 418 ft 0 kts 88°
2026-05-07 14:45 36.82065 27.07105 932 ft 164 kts 149°
2026-05-07 14:45 36.81081 27.07859 651 ft 165 kts 150°
2026-05-07 14:46 36.80476 27.08330 470 ft 159 kts 150°
2026-05-07 14:46 36.79825 27.08831 423 ft 142 kts 148°
2026-05-07 14:47 36.80146 27.08585 421 ft 158 kts 150°
2026-05-07 14:47 36.79362 27.09192 424 ft 101 kts 148°
2026-05-07 14:47 36.80116 27.08609 425 ft 157 kts 150°